TimeEDT,TemperatureF,Dew PointF,Humidity,Sea Level PressureIn,VisibilityMPH,Wind Direction,Wind SpeedMPH,Gust SpeedMPH,PrecipitationIn,Events,Conditions,WindDirDegrees,DateUTC
12:03 AM,53.6,51.8,94,-9999,6.0,NNW,15.0,-,0.01,Rain,Light Rain,330,2013-09-14 04:03:00
12:31 AM,53.6,50.0,88,-9999,10.0,NNW,9.2,-,0.01,,Overcast,330,2013-09-14 04:31:00
12:54 AM,53.1,50.0,89,-9999,10.0,NW,11.5,-,0.01,,Overcast,320,2013-09-14 04:54:00
1:54 AM,53.1,50.0,89,29.88,10.0,NNW,5.8,-,N/A,,Overcast,330,2013-09-14 05:54:00
2:27 AM,53.6,48.2,82,29.88,10.0,NNW,6.9,-,N/A,,Overcast,330,2013-09-14 06:27:00
2:54 AM,53.1,48.9,86,29.89,7.0,NW,10.4,-,N/A,,Overcast,310,2013-09-14 06:54:00
3:12 AM,51.8,50.0,94,29.89,3.0,NNW,5.8,-,0.00,Rain,Light Rain,340,2013-09-14 07:12:00
3:36 AM,51.8,48.2,88,29.90,10.0,NNW,6.9,-,0.00,,Overcast,340,2013-09-14 07:36:00
3:54 AM,52.0,50.0,93,29.90,6.0,North,5.8,-,0.01,,Overcast,350,2013-09-14 07:54:00
4:03 AM,51.8,50.0,94,29.90,4.0,NNW,5.8,-,0.00,Rain,Light Rain,340,2013-09-14 08:03:00
4:15 AM,51.8,50.0,94,29.90,7.0,NNW,6.9,-,0.00,,Overcast,340,2013-09-14 08:15:00
4:26 AM,51.8,50.0,94,29.91,3.0,NW,6.9,-,0.00,Rain,Light Rain,310,2013-09-14 08:26:00
4:43 AM,51.8,50.0,94,29.91,4.0,NW,9.2,-,0.01,Rain,Light Rain,310,2013-09-14 08:43:00
4:54 AM,51.1,50.0,96,29.92,3.0,NW,8.1,-,0.01,Rain,Light Rain,320,2013-09-14 08:54:00
5:01 AM,51.8,48.2,88,29.92,2.0,NW,9.2,-,0.01,Rain,Light Rain,310,2013-09-14 09:01:00
5:32 AM,51.8,48.2,88,29.92,3.0,NW,8.1,-,0.02,Rain,Light Rain,320,2013-09-14 09:32:00
5:54 AM,51.1,48.9,92,29.93,3.0,NW,5.8,-,0.02,Rain,Light Rain,310,2013-09-14 09:54:00
6:16 AM,51.8,48.2,88,29.93,6.0,NNW,8.1,-,0.00,Rain,Light Rain,330,2013-09-14 10:16:00
6:54 AM,51.1,48.0,89,29.95,10.0,NW,6.9,-,0.00,,Overcast,310,2013-09-14 10:54:00
7:54 AM,51.1,48.0,89,29.97,10.0,NW,6.9,-,N/A,,Overcast,320,2013-09-14 11:54:00
8:54 AM,52.0,48.0,86,29.98,10.0,NNW,6.9,-,N/A,,Overcast,340,2013-09-14 12:54:00
9:54 AM,53.1,48.0,83,29.99,10.0,NW,8.1,-,N/A,,Overcast,320,2013-09-14 13:54:00
10:54 AM,54.0,46.9,77,30.00,10.0,NNW,9.2,-,N/A,,Overcast,340,2013-09-14 14:54:00
11:25 AM,55.4,46.4,72,30.00,10.0,North,6.9,-,N/A,,Overcast,350,2013-09-14 15:25:00
11:54 AM,55.9,46.9,72,30.00,10.0,NNW,4.6,-,N/A,,Overcast,330,2013-09-14 15:54:00
12:54 PM,57.9,46.0,65,29.99,10.0,Variable,3.5,-,N/A,,Overcast,0,2013-09-14 16:54:00
1:54 PM,61.0,45.0,56,29.98,10.0,North,8.1,-,N/A,,Partly Cloudy,350,2013-09-14 17:54:00
2:54 PM,63.0,46.9,56,29.97,10.0,NNW,6.9,-,N/A,,Partly Cloudy,340,2013-09-14 18:54:00
3:54 PM,62.1,46.0,56,29.97,10.0,NW,8.1,-,N/A,,Scattered Clouds,320,2013-09-14 19:54:00
4:54 PM,60.1,48.0,64,29.99,10.0,NNE,8.1,-,N/A,,Mostly Cloudy,20,2013-09-14 20:54:00
5:54 PM,60.1,48.0,64,30.01,10.0,NNE,5.8,-,N/A,,Partly Cloudy,30,2013-09-14 21:54:00
6:54 PM,57.0,48.9,74,30.03,10.0,NE,4.6,-,N/A,,Mostly Cloudy,40,2013-09-14 22:54:00
7:54 PM,55.0,48.0,77,30.05,10.0,Calm,Calm,-,N/A,,Mostly Cloudy,0,2013-09-14 23:54:00
8:54 PM,53.1,48.9,86,30.06,10.0,Calm,Calm,-,N/A,,Clear,0,2013-09-15 00:54:00
9:54 PM,51.1,48.0,89,30.07,10.0,ESE,3.5,-,N/A,,Clear,110,2013-09-15 01:54:00
10:54 PM,48.9,46.9,93,30.09,10.0,Calm,Calm,-,N/A,,Clear,0,2013-09-15 02:54:00
11:54 PM,46.9,45.0,93,30.09,10.0,Calm,Calm,-,N/A,,Clear,0,2013-09-15 03:54:00